Theta_e
354 352 353 352 353 352 352 353 353 354 355 351 352 353 350 349 346 342 343 344 341 339 338 338 339 339 338 338 338 337 337 337 338 338 338 338 339 338 337 336 336 337 338
355 354 354 354 354 354 354 355 358 357 355 351 350 353 353 348 348 346 342 344 343 341 339 338 338 339 339 338 338 337 337 337 337 337 337 336 336 335 335 335 335 335 335
355 357 354 354 354 355 356 353 352 350 349 348 348 348 349 348 347 347 345 344 344 345 344 340 340 340 340 339 338 337 335 334 335 337 337 337 337 336 335 335 334 334 334
355 354 353 352 354 353 352 351 349 349 349 349 349 348 348 348 347 346 346 346 346 345 346 347 343 341 341 340 338 335 333 330 329 333 338 338 337 337 336 334 322 319 317
353 354 351 351 353 349 349 349 349 351 352 350 349 347 347 347 344 343 347 348 347 347 346 348 342 341 340 340 339 336 333 328 327 327 329 328 326 324 320 324 325 323 323
356 357 354 356 355 349 351 353 356 352 348 347 349 350 347 346 343 343 345 346 346 347 347 347 347 346 344 340 339 340 338 333 328 326 326 325 319 321 324 325 324 323 321
355 357 354 355 355 354 354 352 354 353 336 333 346 346 345 344 344 343 344 345 346 346 346 347 347 347 346 342 336 335 337 338 336 331 329 328 324 324 325 326 325 323 321
355 356 358 356 356 355 357 351 349 349 347 341 350 349 347 344 343 342 346 346 346 345 346 347 348 347 346 344 343 339 337 338 340 339 337 335 332 330 328 327 327 325 321
355 357 358 359 358 360 355 356 351 351 353 352 352 349 348 345 344 343 344 347 347 346 344 344 343 344 344 343 341 341 337 336 334 334 337 334 331 331 333 332 330 326 324
353 354 357 358 359 354 360 357 358 356 354 354 352 350 349 347 351 347 342 346 346 342 340 338 337 335 336 336 336 331 328 330 332 333 333 335 334 334 331 330 331 328 326
354 352 353 356 357 357 357 360 358 357 354 354 353 353 351 350 348 348 346 348 346 340 335 333 332 331 331 332 332 328 321 319 320 321 322 326 330 331 330 328 326 326 327
348 350 353 354 356 358 358 360 359 358 357 357 352 351 353 350 349 346 344 345 347 343 335 333 332 330 329 328 326 323 322 318 317 317 318 318 318 319 321 322 325 327 326
345 347 352 355 353 355 359 359 358 360 358 358 358 354 352 350 345 342 343 345 347 345 341 334 331 328 326 323 320 318 321 320 318 319 320 320 320 320 320 321 323 326 328
344 345 349 352 351 352 352 354 356 357 359 358 359 357 352 347 337 340 344 346 345 343 340 335 330 324 319 318 319 318 321 321 320 321 320 319 319 319 320 320 320 320 322
350 350 352 353 352 352 355 359 356 358 356 358 359 355 347 337 338 344 346 345 343 337 334 331 324 317 315 314 313 313 315 316 317 317 317 312 313 315 317 317 317 317 318
354 355 354 354 354 354 355 356 355 354 360 361 354 347 338 340 344 344 343 341 334 330 329 321 317 318 318 316 312 314 315 312 316 313 312 312 313 314 315 314 314 313 313
357 358 357 357 357 356 357 359 360 361 361 356 348 341 341 343 336 336 334 325 321 320 320 319 318 319 319 317 314 315 316 314 315 311 310 312 312 311 312 312 312 311 311
358 358 358 357 358 358 360 361 361 362 358 353 348 347 345 337 335 329 323 320 319 319 319 321 319 317 316 313 313 317 317 314 314 312 309 309 311 309 310 310 309 309 310
358 357 356 358 359 361 362 362 363 359 356 349 349 348 341 337 328 321 319 318 319 319 319 318 317 315 313 312 314 317 317 315 313 310 308 310 308 308 309 309 309 308 308
358 357 358 359 361 363 362 364 360 353 348 350 348 344 337 328 322 321 321 321 321 319 319 317 315 314 313 313 315 317 318 314 312 309 310 308 308 308 308 308 308 309 310
358 358 359 360 363 363 363 364 356 350 350 346 340 331 325 318 319 319 320 321 320 318 318 316 314 314 315 314 314 316 317 317 313 309 310 308 309 308 308 307 308 309 311
360 360 361 361 363 361 366 364 354 349 346 337 328 320 312 312 313 313 313 313 317 320 319 317 313 314 314 313 313 314 316 316 312 307 308 309 309 310 309 307 308 310 313
361 362 361 363 364 366 365 361 351 347 342 334 328 322 319 316 319 317 317 318 316 316 315 315 313 311 312 312 311 313 316 317 313 309 307 311 309 310 309 308 308 310 315
361 362 363 365 368 363 364 355 344 343 337 331 326 322 320 321 321 321 321 319 318 317 313 310 310 309 309 309 313 315 316 317 316 312 309 314 311 309 311 309 309 312 314
363 363 365 366 365 361 359 350 342 339 333 329 326 323 321 320 317 320 320 319 319 318 314 311 310 308 307 306 308 314 316 318 318 316 311 313 313 313 311 311 310 313 314
364 362 365 368 358 361 354 344 340 337 332 329 326 321 319 318 315 320 320 319 319 319 316 312 312 310 308 309 312 313 313 315 315 315 311 311 311 311 310 312 310 312 314
Wind_Speed
3 2 4 4 5 6 7 10 12 10 9 10 12 11 11 10 9 7 5 5 5 5 6 6 5 5 4 5 6 6 8 9 10 10 9 8 8 8 8 8 7 8 9
2 2 3 4 5 8 8 11 12 11 11 14 13 12 12 11 11 9 7 6 6 8 8 9 9 9 8 7 7 7 8 8 9 10 10 9 9 9 8 7 6 6 5
1 2 2 4 6 8 8 10 12 12 13 13 14 15 13 13 12 10 8 9 8 7 7 10 11 10 10 11 10 8 7 6 7 9 10 10 10 9 8 7 5 5 4
3 3 4 5 8 8 10 12 13 14 15 16 17 17 14 13 11 7 8 9 8 10 11 6 8 10 10 10 9 7 6 5 5 6 7 8 8 7 7 5 3 2 0
4 4 5 6 8 9 9 11 12 13 15 16 19 18 14 11 8 10 9 7 9 11 10 9 7 8 9 8 7 7 5 5 5 6 6 7 7 7 7 5 3 1 2
4 5 5 5 7 7 6 7 6 9 14 17 19 18 16 9 7 9 9 8 8 9 7 8 9 10 10 8 9 7 6 6 6 6 6 5 7 8 7 4 3 3 4
3 5 6 5 6 6 8 9 10 6 13 17 18 19 17 7 7 9 8 8 8 10 11 10 12 8 6 5 7 9 6 9 7 8 8 7 8 9 8 7 6 7 7
4 5 5 6 7 10 11 7 8 19 8 12 8 16 7 12 0 16 10 10 11 12 9 7 5 3 2 2 2 9 9 8 9 10 9 9 10 11 11 10 9 9 9
5 4 5 6 9 11 12 8 9 10 7 10 10 7 5 7 16 8 11 5 9 10 6 5 7 7 6 5 6 7 7 7 9 10 11 13 13 14 15 13 11 10 8
9 9 7 8 10 11 11 11 10 11 11 11 12 11 12 12 6 7 14 7 5 5 5 5 6 8 7 7 8 10 8 7 4 7 10 12 13 14 14 12 10 10 9
13 13 10 10 10 10 9 11 11 10 9 11 15 14 14 11 13 5 4 11 8 3 3 4 5 6 7 8 7 10 10 8 7 7 8 8 9 10 9 11 13 12 13
13 12 13 12 12 11 12 11 13 11 14 13 16 15 13 10 9 2 5 11 9 4 1 3 6 7 8 8 8 12 12 15 13 13 11 9 9 10 10 10 11 12 13
13 12 13 13 13 12 14 14 14 13 14 15 16 12 9 7 5 4 7 9 3 3 2 1 6 9 10 11 12 17 12 18 15 12 10 10 10 10 10 8 8 8 7
14 12 13 13 13 15 17 15 14 15 14 17 14 9 6 2 7 6 5 7 7 5 2 6 5 10 12 13 13 17 12 16 12 11 12 12 12 13 13 11 11 11 12
15 14 12 11 13 15 15 13 14 15 16 13 11 5 4 7 8 6 5 5 7 8 6 8 8 10 12 13 14 15 13 15 10 10 14 17 17 14 12 12 13 13 14
14 14 11 13 14 15 15 13 15 14 11 9 6 4 5 5 4 3 3 6 9 12 6 9 7 8 11 14 15 14 13 13 8 10 14 15 9 8 8 10 11 11 12
14 13 11 13 13 15 13 11 11 10 7 6 3 3 3 4 5 4 6 8 9 10 7 4 7 8 10 14 16 15 14 9 3 9 14 10 8 8 8 9 11 13 11
13 12 11 12 11 11 10 9 8 5 1 2 5 5 6 6 7 6 9 11 11 10 6 5 7 10 11 14 16 14 12 10 8 13 16 8 8 10 9 11 12 13 15
14 13 11 11 9 9 8 6 3 1 5 7 7 8 7 8 9 8 9 9 8 9 9 9 10 12 15 18 18 15 10 12 6 15 10 7 12 10 11 11 13 13 12
14 13 11 10 9 7 6 2 3 7 9 10 11 10 10 10 10 10 11 9 7 7 8 11 12 14 17 18 19 18 14 11 7 18 10 12 14 13 10 12 10 16 20
13 11 10 9 8 6 5 5 9 11 12 13 13 12 12 12 12 9 10 8 9 11 12 13 15 15 17 20 22 18 15 14 6 19 13 12 14 17 15 12 18 23 20
12 10 9 8 6 5 5 5 12 14 13 15 15 15 17 16 14 14 14 12 13 12 14 15 16 16 17 20 20 19 16 14 9 20 15 13 18 20 22 16 22 23 17
12 10 8 7 6 5 5 11 16 15 15 15 15 15 14 13 12 13 13 13 14 16 17 15 15 16 16 19 18 18 17 10 9 13 16 9 16 20 21 22 23 23 17
13 10 9 8 7 6 11 16 20 16 16 15 14 14 14 12 9 9 8 9 10 11 14 14 16 15 14 18 16 16 17 7 6 13 20 8 16 20 22 26 26 23 18
12 11 9 9 11 16 15 20 20 17 17 16 14 13 13 12 12 11 7 8 8 8 9 15 19 20 20 23 23 19 20 15 9 12 23 12 19 19 13 27 32 26 24
13 12 11 11 12 20 20 23 18 17 18 16 14 14 14 12 12 10 7 6 8 8 9 11 14 16 15 17 23 25 24 20 18 11 23 16 19 16 8 16 31 33 28
Wind_Direction
54 41 36 20 8 3 5 357 356 343 343 341 353 346 344 344 341 342 322 305 301 276 256 254 267 276 278 282 275 273 276 272 267 265 258 255 252 253 259 261 268 269 264
59 29 21 8 2 6 1 356 356 357 348 343 347 339 337 334 331 320 321 306 301 282 264 258 255 259 261 272 276 269 271 266 264 262 257 254 250 251 253 254 251 251 252
3 356 339 338 352 355 356 352 347 350 347 343 336 337 335 330 325 308 299 312 308 300 282 271 258 259 263 268 272 267 276 266 259 253 249 247 246 245 239 234 232 242 248
293 316 307 318 334 339 343 346 339 340 341 339 338 336 329 328 337 320 305 305 314 312 310 272 275 267 266 264 260 258 253 253 249 243 233 224 219 221 218 209 192 177 100
276 294 298 318 330 328 334 338 343 349 346 347 333 329 323 321 323 330 313 308 307 310 301 289 289 291 271 257 244 244 246 236 229 214 205 208 206 198 181 173 184 260 329
276 282 295 317 335 336 330 323 342 19 348 342 338 323 324 303 304 335 319 309 312 316 303 293 291 291 291 263 233 225 259 249 231 213 209 205 198 194 198 211 246 275 296
289 295 293 303 312 305 291 323 355 330 334 329 334 323 322 286 280 325 338 324 331 322 312 302 288 297 284 313 241 249 264 241 239 230 229 226 220 231 244 254 270 287 299
279 307 281 289 289 295 287 331 5 302 319 334 305 312 305 321 73 330 319 323 341 328 341 343 346 345 328 309 287 315 306 235 234 247 245 252 255 255 262 271 278 284 288
270 290 278 276 285 293 296 299 289 269 306 312 294 279 314 316 326 316 304 318 337 339 356 19 37 40 32 18 19 23 344 281 260 259 260 259 261 268 268 270 268 278 286
259 264 267 275 290 302 298 305 322 325 314 305 310 284 265 269 288 308 331 332 355 350 12 31 42 44 45 40 41 17 13 6 324 288 274 263 260 267 269 267 257 267 276
255 260 261 270 288 298 302 295 307 316 310 303 309 304 281 271 269 272 292 332 334 323 18 42 44 33 28 22 10 355 350 339 322 302 289 279 266 254 262 268 269 264 258
252 254 258 265 278 291 295 299 304 317 307 304 311 306 278 272 296 202 287 323 317 286 315 15 16 16 10 0 353 352 347 337 331 323 314 298 284 278 276 270 264 260 255
252 257 260 261 273 288 287 294 304 311 306 314 311 310 297 297 329 334 300 302 305 316 269 16 15 7 358 351 346 344 344 335 343 337 332 320 311 301 294 288 267 251 244
256 259 259 268 281 282 287 294 300 301 315 314 315 320 358 60 4 352 286 314 315 233 193 5 10 4 357 354 348 357 343 330 351 344 335 330 321 309 300 292 275 265 253
259 261 266 276 279 283 288 300 300 308 311 314 322 350 23 20 348 337 334 323 318 330 5 65 360 9 1 357 344 345 335 324 331 319 325 322 306 303 295 283 279 273 268
252 262 267 272 280 282 289 295 297 306 309 319 325 28 43 346 351 7 357 338 344 338 346 19 13 8 358 356 346 344 335 327 286 315 329 345 332 310 285 286 283 279 275
248 257 263 269 277 284 291 295 296 299 314 307 48 97 30 60 70 44 21 10 17 8 12 48 3 15 349 347 348 344 338 333 35 24 352 341 340 324 307 293 290 285 277
244 250 255 264 273 280 291 295 296 318 277 114 110 108 100 90 73 48 47 48 49 38 32 10 26 7 358 355 348 347 351 352 340 356 348 348 337 329 323 309 303 290 279
240 246 249 255 263 273 287 287 312 46 115 110 116 116 107 91 78 70 66 59 56 44 34 30 14 11 1 359 355 1 5 359 47 353 2 1 335 338 323 316 304 309 299
237 242 244 249 255 264 269 246 140 128 115 112 110 111 105 99 98 91 80 69 50 36 39 28 18 10 8 3 3 3 10 17 8 0 353 354 358 350 342 332 334 329 312
231 235 238 247 251 246 247 156 145 132 123 116 112 107 106 113 118 103 80 58 39 37 32 26 23 14 8 359 5 1 7 6 52 10 355 1 357 4 1 349 351 338 325
223 225 231 239 237 237 223 229 148 133 132 126 118 110 109 109 112 98 92 79 66 52 48 26 24 9 5 2 4 359 5 14 4 357 1 352 4 12 9 1 354 349 342
216 220 223 219 214 198 210 155 141 137 134 131 128 123 119 121 110 100 80 66 63 58 58 43 27 15 5 360 356 1 359 13 21 3 1 348 357 3 4 2 358 5 7
210 213 211 200 178 188 156 153 140 134 130 130 128 126 128 130 126 106 91 76 71 63 59 47 40 29 24 10 2 2 356 72 62 26 18 356 348 341 357 9 18 30 35
199 202 200 186 181 164 159 156 139 135 132 128 123 127 131 133 130 113 93 87 82 71 50 37 32 29 28 23 22 17 14 26 30 36 18 356 356 345 345 10 22 42 48
190 191 187 177 177 165 164 164 147 143 137 134 127 131 137 141 127 114 100 91 87 72 58 44 38 32 34 34 33 36 27 27 24 21 4 356 357 359 344 5 20 38 51